Location: *
(45.1333°S, 169.6333°W)
Time: 21:24:39
(UTC+00:00)

Cosmos 1812 - Pass Details

Date: 26 May 2022
Orbit: 511 x 514 km, 82.5° (Epoch: 01 July)

Event Time Altitude Azimuth Distance (km) Brightness Sun altitude
Rises 04:40:20 0° 175° (S) 2,671 6.1 -8.9°
Reaches altitude 10° 04:42:56 10° 158° (SSE) 1,774 5.0 -9.3°
Maximum altitude 04:45:52 20° 109° (ESE) 1,248 4.0 -9.8°
Drops below altitude 10° 04:48:46 10° 60° (ENE) 1,753 5.0 -10.3°
Sets 04:51:19 0° 42° (NE) 2,630 6.1 -10.7°
